Location: Dob?e?
(49.9411°N, 15.1496°E)
Time: 02:44:00
(UTC+00:00)

X-37B - Pass Details

Date: 08 August 2021
Orbit: 381 x 393 km, 45.0° (Epoch: 29 August)

Event Time Altitude Azimuth Distance (km) Brightness Sun altitude
Exits shadow 01:37:26 30° 165° (SSE) 720 1.6 -15.9°
Drops below altitude 10° 01:40:04 10° 108° (ESE) 1,398 3.6 -15.7°
Sets 01:42:16 0° 98° (E) 2,251 4.9 -15.4°
